DW5467 Weather Reports


time (UTC)temp
C
wind
direction
speed
KPH
gust
KPH
rain 1hr
cm
rain 24hr
cm
rain mn
cm
humidity
%
barometer
mb
20260506132030 23 166 0.0 0.0 0.00 0.00 0.00 88 1011.0
20260506131531 23 166 0.0 0.0 0.00 0.00 0.00 88 1011.0
20260506130031 23 255 0.0 0.0 0.00 0.00 0.00 88 1010.9
20260506125531 23 255 0.0 0.0 0.00 0.00 0.00 88 1010.9
20260506125030 22 241 0.0 0.0 0.00 0.00 0.00 88 1010.9
20260506124030 22 241 0.0 1.6 0.00 0.00 0.00 88 1010.7
20260506123531 22 163 0.0 1.6 0.00 0.00 0.00 87 1010.7
20260506123030 22 163 0.0 0.0 0.00 0.00 0.00 87 1010.6
20260506122530 22 209 0.0 0.0 0.00 0.00 0.00 87 1010.5
20260506122031 22 209 0.0 0.0 0.00 0.00 0.00 87 1010.4
20260506121530 22 209 0.0 0.0 0.00 0.00 0.00 87 1010.4
20260506120530 22 208 0.0 1.6 0.00 0.00 0.00 87 1010.2
20260506120031 22 208 0.0 1.6 0.00 0.00 0.00 87 1010.2
20260506115531 22 208 0.0 1.6 0.00 0.00 0.00 87 1010.2
20260506115031 22 208 0.0 1.6 0.00 0.00 0.00 87 1010.1
20260506114530 22 208 0.0 1.6 0.00 0.00 0.00 87 1010.1
20260506114030 22 207 0.0 1.6 0.00 0.00 0.00 87 1010.1
20260506113530 22 207 0.0 1.6 0.00 0.00 0.00 87 1010.0
20260506113030 22 94 0.0 0.0 0.00 0.00 0.00 87 1010.0
20260506112531 22 94 0.0 3.2 0.00 0.00 0.00 87 1009.9
20260506111530 22 323 0.0 4.8 0.00 0.00 0.00 87 1009.7
20260506111030 22 334 0.0 3.2 0.00 0.00 0.00 87 1009.6
20260506110530 22 161 0.0 3.2 0.00 0.00 0.00 87 1009.5
20260506110030 22 161 0.0 3.2 0.00 0.00 0.00 87 1009.6
20260506105530 22 135 1.6 3.2 0.00 0.00 0.00 87 1009.4
20260506104530 22 185 1.6 3.2 0.00 0.00 0.00 87 1009.4
20260506104030 22 209 1.6 4.8 0.00 0.00 0.00 87 1009.4
20260506103531 22 104 0.0 4.8 0.00 0.00 0.00 87 1009.3
20260506103030 22 211 0.0 1.6 0.00 0.00 0.00 87 1009.2
20260506102530 22 198 0.0 3.2 0.00 0.00 0.00 87 1009.2
20260506101530 22 290 1.6 4.8 0.00 0.00 0.00 87 1009.2
20260506101031 22 289 1.6 1.6 0.00 0.00 0.00 87 1009.2
20260506100531 22 256 0.0 3.2 0.00 0.00 0.00 87 1009.2
20260506095530 22 132 0.0 3.2 0.00 0.00 0.00 87 1009.1
20260506095030 22 108 0.0 1.6 0.00 0.00 0.00 87 1009.0
20260506094530 22 108 1.6 3.2 0.00 0.00 0.00 87 1009.1
20260506094031 22 115 1.6 3.2 0.00 0.00 0.00 87 1009.1
20260506093530 22 110 0.0 1.6 0.00 0.00 0.00 87 1009.1
20260506093030 22 233 0.0 1.6 0.00 0.00 0.00 87 1008.9
20260506092530 22 233 1.6 3.2 0.00 0.00 0.00 87 1008.9
20260506092031 22 264 0.0 3.2 0.00 0.00 0.00 87 1008.8
20260506091530 22 265 0.0 3.2 0.00 0.00 0.00 87 1008.6
20260506090532 22 103 0.0 3.2 0.00 0.00 0.00 87 1008.9
20260506090031 22 150 0.0 1.6 0.00 0.00 0.00 87 1008.9
20260506085530 22 157 0.0 3.2 0.00 0.00 0.00 87 1008.8
20260506085030 22 159 0.0 3.2 0.00 0.00 0.00 87 1008.8
20260506084530 22 253 1.6 3.2 0.00 0.00 0.00 87 1008.8
20260506083531 22 292 0.0 3.2 0.00 0.00 0.00 87 1008.5
20260506083031 22 268 0.0 3.2 0.00 0.00 0.00 87 1008.6
20260506082530 22 240 1.6 4.8 0.00 0.00 0.00 87 1008.7
20260506082031 22 61 0.0 3.2 0.00 0.00 0.00 87 1008.6
20260506080530 22 229 1.6 3.2 0.00 0.00 0.00 86 1008.3
20260506073029 22 323 1.6 4.8 0.00 0.00 0.00 86 1008.4
20260506072529 22 302 0.0 4.8 0.00 0.00 0.00 86 1008.0
20260506072031 22 221 1.6 4.8 0.00 0.00 0.00 86 1008.5
20260506071530 22 242 0.0 1.6 0.00 0.00 0.00 86 1008.5
20260506071029 22 221 1.6 4.8 0.00 0.00 0.00 86 1008.4
20260506070530 22 219 0.0 0.0 0.00 0.00 0.00 86 1008.5
20260506062030 22 145 0.0 0.0 0.00 0.00 0.00 86 1009.4
20260506061530 22 145 0.0 0.0 0.00 0.00 0.00 86 1009.3
20260506061031 22 137 0.0 3.2 0.00 0.00 0.00 86 1009.1
20260506051030 23 255 1.6 4.8 0.00 0.00 0.00 85 1009.0
20260506050531 23 288 0.0 4.8 0.00 0.00 0.00 85 1008.8
20260506044530 23 328 1.6 4.8 0.00 0.00 0.00 85 1008.3
20260506044030 23 167 0.0 4.8 0.00 0.00 0.00 85 1008.2
20260506043530 23 266 1.6 3.2 0.00 0.00 0.00 85 1008.1
20260506042530 23 303 0.0 8.0 0.00 0.00 0.00 85 1008.0
20260506042031 23 319 1.6 4.8 0.00 0.00 0.00 84 1008.2
20260506041530 23 333 1.6 4.8 0.00 0.00 0.00 84 1008.1
20260506040530 23 275 0.0 4.8 0.00 0.00 0.00 84 1008.0
20260506040031 23 214 1.6 4.8 0.00 0.00 0.00 84 1008.1
20260506035530 23 188 1.6 4.8 0.00 0.00 0.00 84 1008.1
20260506034530 23 304 3.2 9.7 0.00 0.00 0.00 84 1008.0
20260506034030 23 227 0.0 3.2 0.00 0.00 0.00 84 1008.0
20260506033530 23 261 0.0 1.6 0.00 0.00 0.00 83 1008.1
20260506033030 23 261 0.0 1.6 0.00 0.00 0.00 83 1008.1
20260506032030 23 270 1.6 8.0 0.00 0.00 0.00 83 1007.7
20260506031530 23 281 0.0 3.2 0.00 0.00 0.00 83 1007.6
20260506031029 23 311 0.0 3.2 0.00 0.00 0.00 82 1007.8
20260506030530 23 315 0.0 3.2 0.00 0.00 0.00 82 1008.0
20260506030030 23 315 1.6 1.6 0.00 0.00 0.00 82 1008.2
20260506025530 23 315 1.6 3.2 0.00 0.00 0.00 82 1008.3
20260506025030 23 86 1.6 3.2 0.00 0.00 0.00 82 1008.2
20260506024530 23 305 0.0 3.2 0.00 0.00 0.00 82 1008.1
20260506024030 24 304 0.0 3.2 0.00 0.00 0.00 82 1008.0
20260506023530 24 102 0.0 3.2 0.00 0.00 0.00 82 1007.9
20260506023029 24 95 0.0 3.2 0.00 0.00 0.00 82 1007.8
20260506022530 24 92 1.6 3.2 0.00 0.00 0.00 81 1007.7
20260506022030 24 79 0.0 1.6 0.00 0.00 0.00 81 1007.5
20260506021530 24 78 1.6 4.8 0.00 0.00 0.00 80 1007.5
20260506021029 24 301 0.0 4.8 0.00 0.00 0.00 80 1007.5
20260506020530 24 305 0.0 1.6 0.00 0.00 0.00 80 1007.2
20260506020030 24 305 0.0 1.6 0.00 0.00 0.00 80 1007.2
20260506015530 24 305 0.0 1.6 0.00 0.00 0.00 79 1007.2
20260506014530 25 265 0.0 1.6 0.00 0.00 0.00 79 1007.1
20260506014029 25 265 0.0 1.6 0.00 0.00 0.00 79 1007.1
20260506013529 25 265 1.6 3.2 0.00 0.00 0.00 79 1007.1
20260506013029 25 264 1.6 3.2 0.00 0.00 0.00 78 1007.2
20260506012530 25 265 0.0 1.6 0.00 0.00 0.00 78 1007.1
20260506012030 25 265 0.0 1.6 0.00 0.00 0.00 78 1007.0
20260506011030 25 326 0.0 3.2 0.00 0.00 0.00 77 1006.6
20260506010530 25 327 0.0 1.6 0.00 0.00 0.00 77 1006.5
20260506010030 25 327 0.0 3.2 0.00 0.00 0.00 77 1006.4
20260506005529 25 303 0.0 3.2 0.00 0.00 0.00 77 1006.4
20260506005030 25 302 1.6 3.2 0.00 0.00 0.00 77 1006.3
20260506004530 26 304 0.0 1.6 0.00 0.00 0.00 76 1006.3
20260506003530 26 271 0.0 1.6 0.00 0.00 0.00 76 1006.2
20260506003030 26 271 0.0 1.6 0.00 0.00 0.00 76 1006.4
20260506001530 26 271 0.0 1.6 0.00 0.00 0.00 76 1006.3
20260506001030 26 271 1.6 3.2 0.00 0.00 0.00 76 1006.4
20260506000531 26 271 1.6 4.8 0.00 0.00 0.00 76 1006.4
20260506000030 26 284 1.6 4.8 0.00 0.00 0.00 76 1006.3
20260505235531 26 322 1.6 4.8 0.00 0.00 0.00 76 1006.3
20260505235030 26 245 1.6 3.2 0.00 0.00 0.00 75 1006.3
20260505234530 26 221 1.6 4.8 0.00 0.00 0.00 75 1006.3
20260505233531 26 22 1.6 4.8 0.00 0.00 0.00 75 1006.3
20260505233031 26 298 1.6 9.7 0.00 0.00 0.00 75 1006.2
20260505232530 26 242 0.0 1.6 0.00 0.00 0.00 75 1006.2
20260505232029 26 246 0.0 3.2 0.00 0.00 0.00 75 1006.2
20260505231030 26 241 1.6 4.8 0.00 0.00 0.00 74 1006.1
20260505225530 27 67 1.6 4.8 0.00 0.00 0.00 74 1006.0
20260505225030 27 276 3.2 9.7 0.00 0.00 0.00 73 1006.0
20260505224530 27 325 1.6 4.8 0.00 0.00 0.00 73 1006.0
20260505224030 27 250 1.6 4.8 0.00 0.00 0.00 74 1005.9
20260505223530 27 260 0.0 4.8 0.00 0.00 0.00 74 1006.0
20260505223031 27 309 1.6 4.8 0.00 0.00 0.00 74 1006.0
20260505222529 27 328 1.6 4.8 0.00 0.00 0.00 74 1006.1
20260505222030 27 252 1.6 4.8 0.00 0.00 0.00 73 1006.1
20260505221530 27 197 1.6 4.8 0.00 0.00 0.00 73 1006.2
20260505220530 27 213 1.6 3.2 0.00 0.00 0.00 73 1006.2
20260505220029 27 222 1.6 4.8 0.00 0.00 0.00 74 1006.2
20260505215529 27 255 1.6 4.8 0.00 0.00 0.00 74 1006.3
20260505215029 27 306 1.6 3.2 0.00 0.00 0.00 75 1006.4
20260505214530 27 305 1.6 3.2 0.00 0.00 0.00 75 1006.4
20260505214030 27 290 1.6 3.2 0.00 0.00 0.00 74 1006.4
20260505213529 27 294 1.6 4.8 0.00 0.00 0.00 75 1006.4
20260505213030 27 257 1.6 3.2 0.00 0.00 0.00 75 1006.5
20260505212530 27 267 1.6 4.8 0.00 0.00 0.00 75 1006.5
20260505212030 27 250 1.6 4.8 0.00 0.00 0.00 74 1006.5
20260505211030 27 210 1.6 8.0 0.00 0.00 0.00 74 1006.7
20260505210530 27 250 1.6 4.8 0.00 0.00 0.00 74 1006.8
20260505210029 27 323 1.6 8.0 0.00 0.00 0.00 74 1006.8
20260505205530 27 215 1.6 4.8 0.00 0.00 0.00 73 1006.9
20260505205030 27 312 3.2 4.8 0.00 0.00 0.00 73 1007.0
20260505204530 27 232 1.6 4.8 0.00 0.00 0.00 73 1006.9
20260505203529 27 254 1.6 4.8 0.00 0.00 0.00 70 1006.9
20260505203030 27 256 1.6 4.8 0.00 0.00 0.00 73 1006.9
20260505202530 27 279 1.6 4.8 0.00 0.00 0.00 75 1006.9
20260505202029 27 157 3.2 8.0 0.00 0.00 0.00 74 1006.9
20260505201530 27 263 1.6 4.8 0.00 0.00 0.00 73 1007.0
20260505201030 27 109 1.6 4.8 0.00 0.00 0.00 73 1006.9
20260505200530 27 12 1.6 4.8 0.00 0.00 0.00 73 1006.9
20260505200029 27 239 1.6 4.8 0.00 0.00 0.00 72 1006.9
20260505194530 26 140 1.6 4.8 0.00 0.00 0.00 75 1007.2
20260505193529 26 275 1.6 4.8 0.00 0.00 0.00 74 1007.3
20260505193030 26 233 1.6 4.8 0.00 0.00 0.00 74 1007.4
20260505192530 26 355 1.6 4.8 0.00 0.00 0.00 75 1007.4
20260505192030 26 335 3.2 4.8 0.00 0.00 0.00 76 1007.5
20260505191530 26 327 0.0 1.6 0.00 0.00 0.00 77 1007.5
20260505190030 26 306 1.6 4.8 0.00 0.00 0.00 76 1007.6
20260505185530 26 231 3.2 4.8 0.00 0.00 0.00 75 1007.7
20260505185030 26 66 1.6 3.2 0.00 0.00 0.00 75 1007.7
20260505184529 26 261 1.6 4.8 0.00 0.00 0.00 76 1007.7
20260505184030 26 158 1.6 4.8 0.00 0.00 0.00 76 1007.8
20260505183529 26 133 1.6 4.8 0.00 0.00 0.00 75 1007.8
20260505182030 25 315 1.6 4.8 0.00 0.00 0.00 77 1007.9
20260505181530 25 222 3.2 11.3 0.00 0.00 0.00 76 1007.9
20260505181030 25 247 3.2 4.8 0.00 0.00 0.00 75 1007.7
20260505180530 25 209 3.2 4.8 0.00 0.00 0.00 75 1007.7
20260505180030 25 246 1.6 9.7 0.00 0.00 0.00 76 1007.7
20260505175530 25 138 1.6 8.0 0.00 0.00 0.00 77 1007.8
20260505175029 25 229 3.2 8.0 0.00 0.00 0.00 76 1007.7
20260505174529 25 205 1.6 4.8 0.00 0.00 0.00 77 1007.9
20260505174030 25 201 1.6 4.8 0.00 0.00 0.00 78 1008.0
20260505173529 24 198 3.2 11.3 0.00 0.00 0.00 78 1008.0
20260505173029 24 298 3.2 14.5 0.00 0.00 0.00 78 1008.1
20260505172530 24 333 1.6 4.8 0.00 0.00 0.00 79 1008.1
20260505172030 24 272 1.6 14.5 0.00 0.00 0.00 79 1008.2
20260505170531 24 341 1.6 4.8 0.00 0.00 0.00 80 1008.3
20260505165530 23 350 1.6 4.8 0.00 0.00 0.00 82 1008.4
20260505165030 22 98 1.6 4.8 0.00 0.00 0.00 84 1008.4
20260505164529 22 259 1.6 4.8 0.00 0.00 0.00 84 1008.4
20260505164030 22 250 1.6 4.8 0.00 0.00 0.00 84 1008.4
20260505163529 22 207 1.6 8.0 0.00 0.00 0.00 84 1008.5
20260505163030 22 299 0.0 3.2 0.00 0.00 0.00 84 1008.5
20260505162530 22 299 1.6 4.8 0.00 0.00 0.00 84 1008.7
20260505162030 22 319 1.6 4.8 0.00 0.00 0.00 84 1008.8
20260505161530 22 129 0.0 4.8 0.00 0.00 0.00 84 1008.9
20260505161030 22 119 0.0 0.0 0.00 0.00 0.00 84 1008.9
20260505160529 22 125 0.0 1.6 0.00 0.00 0.00 85 1008.8
20260505152530 21 202 1.6 8.0 0.00 0.00 0.00 86 1008.6
20260505152030 21 313 0.0 4.8 0.00 0.00 0.00 86 1008.7
20260505151530 21 309 1.6 4.8 0.00 0.00 0.00 86 1008.7
20260505151031 21 269 1.6 4.8 0.00 0.00 0.00 86 1008.9
20260505150530 21 252 0.0 4.8 0.00 0.00 0.00 86 1008.9
20260505140530 20 223 1.6 4.8 0.00 0.00 0.00 86 1008.7